EN

Hourly Weather Bolshoe Permievo

Today, 31 October, Saturday

Time Temperature Precipitation Wind Pressure Humidity
00:00 +4°C° 0.3 mm 4 mps 744 mmHg 87%
01:00 +4°C° 0.6 mm 3 mps 744 mmHg 89%
02:00 +4°C° 0.6 mm 3 mps 744 mmHg 90%
03:00 +4°C° 0.6 mm 3 mps 744 mmHg 92%
04:00 +4°C° 0.7 mm 3 mps 744 mmHg 92%
05:00 +4°C° 0.7 mm 3 mps 743 mmHg 93%
06:00 +3°C° 0.7 mm 3 mps 743 mmHg 93%
07:00 +4°C° 0.2 mm 3 mps 743 mmHg 90%
08:00 +4°C° 0.2 mm 3 mps 743 mmHg 88%
09:00 +5°C° 0.2 mm 2 mps 743 mmHg 85%
10:00 +5°C° 0.1 mm 2 mps 743 mmHg 84%
11:00 +5°C° 0.1 mm 2 mps 743 mmHg 83%
12:00 +6°C° 0.1 mm 1 mps 744 mmHg 82%
13:00 +7°C° 0 mm 1 mps 744 mmHg 81%
14:00 +7°C° 0 mm 1 mps 744 mmHg 81%
15:00 +8°C° 0 mm 1 mps 744 mmHg 80%
16:00 +7°C° 0 mm 1 mps 744 mmHg 82%
17:00 +7°C° 0 mm 1 mps 744 mmHg 84%
18:00 +6°C° 0 mm 1 mps 744 mmHg 85%
19:00 +6°C° 0 mm 1 mps 745 mmHg 85%
20:00 +7°C° 0 mm 1 mps 745 mmHg 85%
21:00 +7°C° 0 mm 1 mps 745 mmHg 85%
22:00 +6°C° 0 mm 1 mps 745 mmHg 87%
23:00 +6°C° 0 mm 1 mps 745 mmHg 88%

Tomorrow, 1 November, Sunday

Time Temperature Precipitation Wind Pressure Humidity
00:00 +5°C° 0 mm 2 mps 745 mmHg 90%
01:00 +4°C° 0 mm 2 mps 745 mmHg 91%
02:00 +4°C° 0 mm 2 mps 746 mmHg 92%
03:00 +4°C° 0 mm 2 mps 746 mmHg 93%
04:00 +4°C° 0 mm 2 mps 746 mmHg 94%
05:00 +3°C° 0 mm 3 mps 746 mmHg 95%
06:00 +3°C° 0 mm 3 mps 746 mmHg 95%
07:00 +4°C° 0 mm 3 mps 746 mmHg 95%
08:00 +4°C° 0 mm 3 mps 747 mmHg 94%
09:00 +4°C° 0 mm 4 mps 747 mmHg 94%
10:00 +5°C° 0 mm 4 mps 747 mmHg 92%
11:00 +5°C° 0 mm 5 mps 747 mmHg 90%
12:00 +5°C° 0 mm 5 mps 747 mmHg 88%
13:00 +5°C° 0 mm 5 mps 747 mmHg 88%
14:00 +5°C° 0 mm 4 mps 747 mmHg 87%
15:00 +5°C° 0 mm 4 mps 747 mmHg 86%
16:00 +5°C° 0 mm 4 mps 747 mmHg 87%
17:00 +5°C° 0 mm 4 mps 747 mmHg 88%
18:00 +4°C° 0 mm 4 mps 748 mmHg 88%
19:00 +4°C° 0 mm 4 mps 748 mmHg 88%
20:00 +4°C° 0 mm 4 mps 748 mmHg 89%
21:00 +4°C° 0 mm 4 mps 748 mmHg 89%
22:00 +4°C° 0.1 mm 4 mps 747 mmHg 89%
23:00 +4°C° 0.1 mm 4 mps 747 mmHg 89%

Day after tomorrow, 2 November, Monday

Time Temperature Precipitation Wind Pressure Humidity
00:00 +4°C° 0.1 mm 4 mps 747 mmHg 90%
01:00 +4°C° 0.4 mm 4 mps 747 mmHg 90%
02:00 +4°C° 0.4 mm 4 mps 747 mmHg 91%
03:00 +4°C° 0.4 mm 4 mps 747 mmHg 92%
04:00 +4°C° 0.2 mm 4 mps 747 mmHg 92%
05:00 +4°C° 0.2 mm 4 mps 747 mmHg 93%
06:00 +4°C° 0.2 mm 4 mps 747 mmHg 93%
07:00 +4°C° 0 mm 4 mps 747 mmHg 92%
08:00 +4°C° 0 mm 4 mps 747 mmHg 91%
09:00 +4°C° 0 mm 4 mps 747 mmHg 89%
10:00 +5°C° 0 mm 4 mps 747 mmHg 86%
11:00 +6°C° 0 mm 4 mps 746 mmHg 82%
12:00 +7°C° 0 mm 4 mps 746 mmHg 79%
13:00 +7°C° 0 mm 4 mps 746 mmHg 79%
14:00 +7°C° 0 mm 4 mps 746 mmHg 79%
15:00 +7°C° 0 mm 4 mps 746 mmHg 78%
16:00 +6°C° 0 mm 4 mps 746 mmHg 80%
17:00 +6°C° 0 mm 4 mps 746 mmHg 83%
18:00 +5°C° 0 mm 4 mps 746 mmHg 85%
19:00 +5°C° 0 mm 4 mps 747 mmHg 87%
20:00 +4°C° 0 mm 3 mps 747 mmHg 88%
21:00 +4°C° 0 mm 3 mps 747 mmHg 90%
22:00 +4°C° 0 mm 3 mps 747 mmHg 91%
23:00 +3°C° 0 mm 3 mps 747 mmHg 92%

3 November, Tuesday

Time Temperature Precipitation Wind Pressure Humidity
00:00 +3°C° 0 mm 3 mps 747 mmHg 93%
01:00 +3°C° 0 mm 3 mps 747 mmHg 93%
02:00 +4°C° 0 mm 2 mps 747 mmHg 93%
03:00 +3°C° 0 mm 2 mps 747 mmHg 94%
04:00 +2°C° 0 mm 3 mps 747 mmHg 93%
05:00 +2°C° 0 mm 3 mps 747 mmHg 93%
06:00 +2°C° 0 mm 3 mps 747 mmHg 93%
07:00 +2°C° 0 mm 3 mps 747 mmHg 91%
08:00 +3°C° 0 mm 3 mps 747 mmHg 88%
09:00 +4°C° 0 mm 3 mps 748 mmHg 85%
10:00 +5°C° 0 mm 3 mps 748 mmHg 81%
11:00 +7°C° 0 mm 3 mps 748 mmHg 77%
12:00 +8°C° 0 mm 3 mps 748 mmHg 74%
13:00 +8°C° 0 mm 3 mps 748 mmHg 74%
14:00 +8°C° 0 mm 2 mps 748 mmHg 75%
15:00 +8°C° 0 mm 2 mps 748 mmHg 76%
16:00 +7°C° 0 mm 2 mps 748 mmHg 80%
17:00 +6°C° 0 mm 2 mps 748 mmHg 83%
18:00 +5°C° 0 mm 2 mps 748 mmHg 86%
19:00 +5°C° 0 mm 2 mps 748 mmHg 86%
20:00 +5°C° 0 mm 2 mps 748 mmHg 86%
21:00 +5°C° 0 mm 2 mps 748 mmHg 85%
22:00 +5°C° 0 mm 2 mps 748 mmHg 85%
23:00 +7°C° 0 mm 1 mps 748 mmHg 84%

4 November, Wednesday

Time Temperature Precipitation Wind Pressure Humidity
00:00 +7°C° 0 mm 1 mps 748 mmHg 83%
01:00 +6°C° 0 mm 1 mps 749 mmHg 85%
02:00 +6°C° 0 mm 1 mps 749 mmHg 86%
03:00 +5°C° 0 mm 1 mps 749 mmHg 87%
04:00 +5°C° 0 mm 1 mps 749 mmHg 87%
05:00 +5°C° 0 mm 1 mps 749 mmHg 88%
06:00 +5°C° 0 mm 1 mps 749 mmHg 89%
07:00 +6°C° 0 mm 1 mps 749 mmHg 86%
08:00 +6°C° 0 mm 1 mps 749 mmHg 84%
09:00 +7°C° 0 mm 1 mps 749 mmHg 82%
10:00 +8°C° 0 mm 1 mps 750 mmHg 78%
11:00 +9°C° 0 mm 1 mps 750 mmHg 74%
12:00 +10°C° 0 mm 1 mps 750 mmHg 70%
13:00 +9°C° 0 mm 0 mps 750 mmHg 72%
14:00 +9°C° 0 mm 0 mps 750 mmHg 74%
15:00 +9°C° 0 mm 0 mps 750 mmHg 76%
16:00 +8°C° 0 mm 0 mps 750 mmHg 80%
17:00 +8°C° 0 mm 1 mps 750 mmHg 84%
18:00 +7°C° 0 mm 1 mps 750 mmHg 88%
19:00 +7°C° 0 mm 1 mps 750 mmHg 89%
20:00 +7°C° 0 mm 1 mps 750 mmHg 90%
21:00 +6°C° 0 mm 1 mps 750 mmHg 90%
22:00 +6°C° 0 mm 1 mps 750 mmHg 91%
23:00 +5°C° 0 mm 0 mps 750 mmHg 91%

5 November, Thursday

Time Temperature Precipitation Wind Pressure Humidity
00:00 +5°C° 0 mm 0 mps 750 mmHg 91%
01:00 +5°C° 0 mm 0 mps 750 mmHg 91%
02:00 +4°C° 0 mm 0 mps 750 mmHg 91%
03:00 +4°C° 0 mm 0 mps 750 mmHg 91%
04:00 +4°C° 0 mm 0 mps 750 mmHg 91%
05:00 +4°C° 0 mm 0 mps 750 mmHg 91%
06:00 +4°C° 0 mm 0 mps 750 mmHg 92%
07:00 +5°C° 0 mm 0 mps 750 mmHg 90%
08:00 +5°C° 0 mm 0 mps 750 mmHg 89%
09:00 +6°C° 0 mm 0 mps 750 mmHg 87%
10:00 +8°C° 0 mm 1 mps 750 mmHg 84%
11:00 +9°C° 0 mm 1 mps 750 mmHg 80%
12:00 +10°C° 0 mm 1 mps 750 mmHg 76%
13:00 +10°C° 0 mm 1 mps 749 mmHg 78%
14:00 +9°C° 0 mm 1 mps 749 mmHg 80%
15:00 +9°C° 0 mm 1 mps 749 mmHg 82%
16:00 +8°C° 0 mm 1 mps 749 mmHg 86%
17:00 +7°C° 0 mm 1 mps 749 mmHg 89%
18:00 +7°C° 0 mm 1 mps 749 mmHg 93%
19:00 +6°C° 0 mm 1 mps 748 mmHg 93%
20:00 +6°C° 0 mm 1 mps 748 mmHg 94%
21:00 +6°C° 0 mm 1 mps 748 mmHg 94%
22:00 +5°C° 0 mm 1 mps 748 mmHg 95%
23:00 +5°C° 0 mm 1 mps 748 mmHg 95%
Show more